Location: Charlottesville
(38.0290°N, 78.4770°W)
Time: 20:35:20
(UTC-04:00)

Vanguard 2 - All Passes

Search period start: 23 October 2017 00:00
Search period end: 02 November 2017 00:00
Orbit: 553 x 2939 km, 32.9° (Epoch: 22 October)

Date Brightness Start Highest point End Pass type
(mag) Time Alt. Az. Time Alt. Az. Time Alt. Az.
23 Oct - 05:25:43 10° S 05:38:11 24° SE 05:49:11 10° E visible
23 Oct - 07:33:11 10° SW 07:49:20 48° SSE 08:01:00 10° E daylight
23 Oct - 09:45:09 10° WSW 10:00:27 66° S 10:09:53 10° E daylight
23 Oct - 11:58:35 10° W 12:10:30 59° SSW 12:17:31 10° ESE daylight
23 Oct - 14:11:57 10° W 14:18:35 25° SW 14:23:15 10° SSE daylight
24 Oct - 05:41:54 10° SSW 05:56:12 31° SE 06:08:30 10° E visible
24 Oct - 07:50:52 10° SW 08:07:32 55° SSE 08:19:18 10° E daylight
24 Oct - 10:03:29 10° WSW 10:18:42 69° S 10:27:58 10° E daylight
24 Oct - 12:17:03 10° W 12:28:30 52° SSW 12:35:22 10° SE daylight
24 Oct - 14:31:05 10° W 14:36:10 18° SW 14:40:03 10° S daylight
25 Oct - 03:55:44 10° SSE 04:03:30 14° SE 04:11:08 10° ESE visible
25 Oct - 05:58:39 10° SSW 06:14:13 38° SSE 06:27:20 10° E visible
25 Oct - 08:08:47 10° WSW 08:25:46 62° SSE 08:37:32 10° E daylight
25 Oct - 10:21:54 10° W 10:36:55 69° S 10:46:02 10° ESE daylight
25 Oct - 12:35:35 10° W 12:46:25 44° SSW 12:53:05 10° SE daylight
25 Oct - 14:51:26 10° WSW 14:53:38 11° SW 14:55:36 10° SSW daylight
26 Oct - 04:10:06 10° S 04:21:19 21° SE 04:32:17 10° E visible
26 Oct - 06:15:51 10° SW 06:32:18 46° SSE 06:45:55 10° E visible
26 Oct - 08:26:55 10° WSW 08:44:03 67° S 08:55:43 10° E daylight
26 Oct - 10:40:22 10° W 10:55:07 66° S 11:04:03 10° ESE daylight
26 Oct - 12:54:11 10° W 13:04:11 36° SSW 13:10:35 10° SSE daylight
27 Oct - 04:25:52 10° S 04:39:09 28° SE 04:52:03 10° E visible
27 Oct - 06:33:22 10° SW 06:50:26 54° SSE 07:04:19 10° E visible
27 Oct - 08:45:11 10° WSW 09:02:20 70° S 09:13:52 10° E daylight
27 Oct - 10:58:50 10° W 11:13:14 61° SSW 11:21:58 10° ESE daylight
27 Oct - 13:13:00 10° W 13:21:50 28° SW 13:27:49 10° SSE daylight
28 Oct - 02:44:27 10° SE 02:46:57 10° SE 02:49:28 10° ESE visible
28 Oct - 04:42:22 10° SSW 04:57:00 35° SE 05:11:10 10° E visible
28 Oct - 06:51:08 10° SW 07:08:38 60° SSE 07:22:38 10° E visible
28 Oct - 09:03:32 10° W 09:20:38 72° S 09:31:59 10° E daylight
28 Oct - 11:17:21 10° W 11:31:15 54° SSW 11:39:48 10° SE daylight
28 Oct - 13:32:10 10° W 13:39:20 20° SW 13:44:36 10° S daylight
29 Oct - 02:55:50 10° SSE 03:04:34 17° SE 03:13:48 10° ESE visible
29 Oct - 04:59:21 10° SSW 05:14:55 43° SSE 05:29:55 10° E visible
29 Oct - 07:09:07 10° WSW 07:26:53 66° SSE 07:40:52 10° E visible
29 Oct - 09:21:58 10° W 09:38:54 71° S 09:50:04 10° ESE daylight
29 Oct - 11:35:54 10° W 11:49:08 46° SSW 11:57:27 10° SE daylight
29 Oct - 13:52:12 10° WSW 13:56:44 14° SW 14:00:29 10° SSW daylight
30 Oct - 03:10:55 10° S 03:22:12 23° SE 03:34:21 10° E visible
30 Oct - 05:16:40 10° SW 05:32:56 50° SSE 05:48:27 10° E visible
30 Oct - 07:27:17 10° WSW 07:45:11 71° S 07:59:05 10° E daylight
30 Oct - 09:40:25 10° W 09:57:07 67° SSW 10:08:05 10° ESE daylight
30 Oct - 11:54:35 10° W 12:06:54 38° SW 12:14:54 10° SSE daylight
31 Oct - 03:27:04 10° SSW 03:39:52 30° SE 03:53:54 10° E visible
31 Oct - 05:34:17 10° SW 05:51:02 58° SSE 06:06:52 10° E visible
31 Oct - 07:45:33 10° WSW 08:03:31 73° S 08:17:17 10° E daylight
31 Oct - 09:58:54 10° W 10:15:16 62° SSW 10:25:59 10° ESE daylight
31 Oct - 12:13:26 10° W 12:24:30 30° SW 12:32:04 10° SSE daylight
01 Nov - 01:44:13 10° SE 01:48:13 11° SE 01:52:26 10° ESE visible
01 Nov - 03:43:47 10° SSW 03:57:36 38° SE 04:12:54 10° E visible
01 Nov - 05:52:07 10° WSW 06:09:13 64° SSE 06:25:13 10° E visible
01 Nov - 08:03:53 10° W 08:21:51 73° S 08:35:25 10° ESE daylight
01 Nov - 10:17:24 10° W 10:33:17 55° SSW 10:43:46 10° SE daylight
01 Nov - 12:32:39 10° W 12:41:58 23° SW 12:48:46 10° S daylight
